Flag for Thailand Weather past 2 weeks in Hat Yai, Thailand

Now
75 °F

Passing clouds.


Feels Like: 74 °F
Forecast: 77 / 94 °F
Wind: No wind

Location: Hat Yai Airport


UV Index: 10 (Very high)

Visibility: N/A


Pressure: 29.77 "Hg

Humidity: 94%

Dew point: 73 °F

Location of Hat YaiLocation

Historic Weather in Hat Yai

°F

Hat Yai temperature yesterday

Maximum temperature yesterday: 93 °F (at 1:00 PM)
Minimum temperature yesterday: 75 °F (at 5:00 AM)
Average temperature yesterday: 82 °F

Past Weeks' High & Low Weather Summary

 TemperatureHumidityPressure
High97 °F (Apr 13, 2:30 PM)100% (Apr 4, 3:00 AM)29.95 "Hg (Apr 4, 3:00 AM)
Low73 °F (Apr 4, 3:00 AM)23% (Apr 13, 3:00 PM)29.68 "Hg (Apr 16, 4:00 PM)
Average82 °F78%29.83 "Hg
* Reported Apr 4 3:00 AM — Apr 19 3:00 AM, Hat Yai, Weather by CustomWeather, © 2014

Note: Actual official high and low records may vary slightly from our data, if they occured in-between our weather recording intervals... More about our weather records

Advertising

Historic Weather Conditions — Data for Previous 24 hours

 ConditionsComfort  
Time TempWeatherWind HumidityBarometerVisibility
3:00 AM
Apr 19
75 °FPassing clouds.3 mph94%29.80 "HgN/A
2:30 AM75 °FPassing clouds.3 mph100%29.80 "HgN/A
2:00 AM75 °FPartly cloudy.2 mph100%29.80 "HgN/A
1:30 AM75 °FPartly cloudy.No wind100%29.80 "HgN/A
1:00 AM75 °FPartly cloudy.2 mph100%29.80 "HgN/A
12:30 AM75 °FPartly cloudy.2 mph100%29.83 "HgN/A
12:00 AM77 °FPartly cloudy.2 mph94%29.83 "HgN/A
11:30 PM
Apr 18
77 °FPartly cloudy.2 mph94%29.86 "HgN/A
11:00 PM77 °FPassing clouds.2 mph94%29.86 "HgN/A
10:30 PM77 °FPassing clouds.No wind94%29.86 "HgN/A
10:00 PM77 °FPassing clouds.3 mph94%29.83 "HgN/A
9:30 PM77 °FPassing clouds.No wind94%29.83 "HgN/A
9:00 PM79 °FPassing clouds.3 mph89%29.83 "HgN/A
8:30 PM79 °FPartly cloudy.3 mph89%29.83 "HgN/A
8:00 PM79 °FPartly cloudy.2 mph89%29.83 "HgN/A
7:30 PM79 °FPartly cloudy.6 mph89%29.80 "HgN/A
7:00 PM79 °FPartly cloudy.5 mph89%29.80 "HgN/A
6:30 PM79 °FPartly cloudy.3 mph89%29.77 "HgN/A
6:00 PM81 °FBroken clouds.3 mph84%29.77 "HgN/A
5:00 PM81 °FBroken clouds.7 mph84%29.74 "HgN/A
4:30 PM84 °FBroken clouds.8 mph74%29.74 "HgN/A
4:00 PM88 °FScattered showers. Broken clouds.7 mph66%29.74 "HgN/A
3:30 PM88 °FScattered showers. Broken clouds.8 mph66%29.71 "HgN/A
3:00 PM93 °FScattered showers. Broken clouds.6 mph53%29.74 "HgN/A
2:30 PM93 °FBroken clouds.8 mph49%29.74 "HgN/A
2:00 PM93 °FBroken clouds.6 mph53%29.77 "HgN/A
1:30 PM93 °FBroken clouds.3 mph53%29.77 "HgN/A
1:00 PM93 °FBroken clouds.3 mph53%29.80 "HgN/A
12:30 PM91 °FBroken clouds.6 mph59%29.80 "HgN/A
12:00 PM91 °FBroken clouds.7 mph59%29.83 "HgN/A
11:30 AM91 °FBroken clouds.2 mph56%29.83 "HgN/A
11:00 AM91 °FBroken clouds.3 mph63%29.86 "HgN/A
10:30 AM88 °FPartly sunny.2 mph66%29.86 "HgN/A
9:30 AM86 °FPartly sunny.2 mph70%29.86 "HgN/A
9:00 AM84 °FScattered clouds.6 mph74%29.86 "HgN/A
8:30 AM82 °FScattered clouds.3 mph79%29.86 "Hg6 mi
8:00 AM81 °FPartly sunny.3 mph84%29.86 "Hg5 mi
7:30 AM79 °FPartly sunny.No wind94%29.83 "Hg5 mi
7:00 AM77 °FBroken clouds.No wind94%29.83 "Hg5 mi
6:00 AM75 °FPartly cloudy.No wind100%29.80 "Hg5 mi
5:30 AM75 °FPartly cloudy.No wind100%29.80 "Hg5 mi
5:00 AM75 °FPartly cloudy.No wind100%29.77 "Hg5 mi
4:00 AM77 °FPartly cloudy.No wind94%29.77 "Hg5 mi
Weather by CustomWeather, © 2014

See weather overview